EST,Max TemperatureF,Mean TemperatureF,Min TemperatureF,Max Dew PointF,MeanDew PointF,Min DewpointF,Max Humidity, Mean Humidity, Min Humidity, Max Sea Level PressureIn, Mean Sea Level PressureIn, Min Sea Level PressureIn, Max VisibilityMiles, Mean VisibilityMiles, Min VisibilityMiles, Max Wind SpeedMPH, Mean Wind SpeedMPH, Max Gust SpeedMPH,PrecipitationIn, CloudCover, Events, WindDirDegrees
2012-12-1,28,24,19,27,17,7,93,77,57,30.65,30.58,30.48,10,6,2,5,2,,0.02,8,Snow,343
2012-12-2,45,36,28,42,32,26,93,90,81,30.49,30.27,29.97,10,5,1,13,2,,0.14,8,Rain,203
2012-12-3,51,40,30,43,38,27,93,84,61,30.30,30.12,29.97,10,6,1,10,4,,0.00,6,,40
2012-12-4,54,41,28,50,35,26,93,90,82,30.29,30.18,29.88,10,4,0,12,1,,0.02,7,Fog-Rain,185
2012-12-5,55,42,30,52,35,16,94,70,51,30.19,29.94,29.80,10,9,4,17,9,24,0.17,7,Rain-Snow,282
2012-12-6,37,29,21,19,16,14,82,61,42,30.37,30.29,30.17,10,10,10,16,8,22,0.00,3,,346
2012-12-7,37,29,21,32,26,18,92,80,59,30.26,30.11,30.03,10,7,2,12,1,,0.06,6,Rain-Snow,200
2012-12-8,39,36,33,36,34,32,96,92,87,30.04,29.93,29.84,8,2,0,4,0,,0.02,8,Fog-Rain,270
2012-12-9,43,36,28,36,30,24,93,84,47,30.29,30.11,29.93,10,6,0,7,2,,0.01,4,Fog-Rain,118
2012-12-10,44,40,35,43,36,30,100,90,75,30.10,29.76,29.48,10,5,0,10,1,,0.68,8,Fog-Rain,350
2012-12-11,41,32,24,38,31,19,93,81,56,30.17,29.83,29.59,10,9,2,8,3,,0.00,7,Rain,334
2012-12-12,39,29,19,23,20,14,88,77,47,30.42,30.32,30.18,10,10,10,10,1,,0.00,3,,305
2012-12-13,41,29,17,25,20,14,93,83,47,30.48,30.41,30.28,10,7,0,4,0,,0.00,3,Fog,190
2012-12-14,44,30,17,28,22,13,89,70,43,30.24,30.16,30.07,10,9,7,12,2,,0.00,4,,260
2012-12-15,37,29,21,25,15,9,75,58,33,30.36,30.30,30.19,10,10,10,8,4,,0.00,1,,28
2012-12-16,27,25,23,21,18,11,86,75,56,30.32,30.19,30.09,10,5,1,8,3,,0.09,8,Snow,69
2012-12-17,34,31,28,32,28,21,93,87,75,30.11,29.97,29.85,10,4,1,6,1,,0.15,8,Rain-Snow,181
2012-12-18,37,36,35,36,34,32,100,92,86,29.80,29.53,29.44,10,4,1,5,2,,0.48,8,Rain,5
2012-12-19,41,38,35,34,30,28,93,76,65,30.07,29.77,29.46,10,10,5,12,4,20,0.00,8,,331
2012-12-20,36,34,33,28,26,25,75,70,64,30.23,30.12,29.99,10,10,10,10,2,22,0.00,8,,116
2012-12-21,51,42,33,46,33,28,89,81,68,29.97,29.48,28.95,10,5,1,16,5,36,0.86,8,Rain-Snow,145
2012-12-22,37,30,24,29,21,13,81,68,54,29.66,29.37,29.13,10,8,2,15,9,25,0.00,8,Snow,257
2012-12-23,34,25,16,22,16,9,81,61,46,29.83,29.77,29.63,10,10,10,12,6,16,0.00,4,,243
2012-12-24,34,28,21,23,17,12,75,62,43,30.06,29.99,29.82,10,10,9,10,4,,0.00,3,,331
2012-12-25,30,21,12,21,17,9,88,80,64,30.32,30.11,30.00,10,7,1,7,2,,0.05,5,Snow,360
2012-12-26,30,18,7,20,11,2,84,72,56,30.40,30.26,29.98,10,9,1,12,2,17,0.01,2,Snow,356
2012-12-27,35,30,24,29,25,18,93,84,74,29.96,29.64,29.48,10,3,0,16,5,20,0.56,8,Fog-Snow,349
2012-12-28,32,24,10,21,17,6,89,74,64,30.04,29.93,29.75,10,10,10,14,6,21,0.00,6,,325
2012-12-29,24,14,3,20,14,0,93,85,73,30.06,29.78,29.54,10,3,0,6,1,,0.28,7,Fog-Snow,346
2012-12-30,25,16,3,20,11,-1,84,66,50,30.06,29.74,29.51,10,8,1,20,5,29,0.02,4,Snow,331
2012-12-31,32,18,3,23,13,-2,84,73,64,30.05,29.92,29.70,10,10,10,10,2,,0.00,8,,188